Location: Liscomb Game Sanctuary
(45.1633°N, 62.5575°W)
Time: 18:33:56
(UTC-03:00)

Amateur Radio Satellites - All Passes

Search period start: 21 August 2017 18:03
Search period end: 22 August 2017 18:03
Location: Liscomb Game Sanctuary, 45.1633°N, 62.5575°W

Satellite Date Start Highest point End Downlink Frequencies (MHz)
Time Altitude Azimuth
DOVE 4 21 Aug 18:11:47 18:16:57 52° 261° (W) 18:21:59 437.250
YUBILEINY 21 Aug 18:13:14 18:20:52 32° 294° (WNW) 18:28:33 435.215
CUTE 1.7 + AOD 2 21 Aug 18:16:36 18:18:57 15° 62° (ENE) 18:21:19 437.475
MOZHAYETS 4 21 Aug 18:21:13 18:22:59 12° 302° (WNW) 18:24:46
KKS-1 21 Aug 18:25:01 18:29:29 86° 284° (WNW) 18:33:54 437.445
LilacSat-2 21 Aug 18:26:45 18:30:32 86° 261° (W) 18:34:22 437.200
XW-2D 21 Aug 18:30:04 18:33:49 81° 258° (WSW) 18:37:38 145.860 - 145.880
NUDT-PHONESAT 21 Aug 18:33:34 18:37:13 78° 76° (ENE) 18:40:56 437.300
CUBEBUG 2 21 Aug 18:35:42 18:37:27 12° 61° (ENE) 18:39:13 437.445
CUBESAT XI-V 21 Aug 18:41:02 18:45:08 30° 293° (WNW) 18:49:11 437.345
XW-2B 21 Aug 18:41:12 18:44:55 61° 259° (W) 18:48:41 145.730 - 145.750
RS-15 21 Aug 18:57:05 19:08:46 47° 36° (NE) 19:19:54 29.354- 29.394
XW-2C 21 Aug 19:00:40 19:04:08 35° 263° (W) 19:07:38 145.795 - 145.815
STARS 21 Aug 19:01:32 19:05:56 84° 285° (WNW) 19:10:17 437.465
SEEDS 21 Aug 19:01:37 19:05:08 26° 67° (ENE) 19:08:40 437.485
XW-2F 21 Aug 19:12:30 19:15:43 27° 265° (W) 19:18:59 145.980 - 146.000
XW-2A 21 Aug 19:24:14 19:27:12 31° 71° (ENE) 19:30:13 145.665 - 145.685
AO-73 21 Aug 19:25:52 19:27:27 12° 61° (ENE) 19:29:03 145.935
HO-68 21 Aug 19:29:40 19:36:50 90° 199° (SSW) 19:44:03 435.675
CUTE-I 21 Aug 19:31:08 19:35:52 31° 264° (W) 19:40:37 437.470
STRAND 1 21 Aug 19:31:58 19:35:14 17° 90° (E) 19:38:29 437.568
KAITUO 1B 21 Aug 19:37:05 19:39:43 18° 268° (W) 19:42:22 145.475/437.950
O/OREOS (USA 219) 21 Aug 19:38:54 19:43:28 82° 66° (ENE) 19:48:02 437.305
AAUSAT CUBESAT 2 21 Aug 19:44:28 19:48:14 34° 69° (ENE) 19:52:02 437.432
CUTE 1.7 + AOD 2 21 Aug 19:50:06 19:54:17 61° 259° (W) 19:58:32 437.475
UWE-3 21 Aug 20:00:27 20:04:32 53° 73° (ENE) 20:08:35 435.000/436.395/437.385
KKS-1 21 Aug 20:04:13 20:05:18 11° 303° (WNW) 20:06:22 437.445
Oscar 11 21 Aug 20:07:48 20:11:19 25° 66° (ENE) 20:14:51 .
CUBEBUG 2 21 Aug 20:09:18 20:13:33 72° 259° (W) 20:17:44 437.445
SEEDS 21 Aug 20:36:59 20:40:42 30° 264° (W) 20:44:29 437.485
ZACube-1 21 Aug 20:38:17 20:42:24 76° 77° (ENE) 20:46:34 437.345
STARS 21 Aug 20:40:55 20:41:31 10° 303° (WNW) 20:42:08 437.465
DELFI C3 21 Aug 20:44:23 20:46:40 15° 63° (ENE) 20:48:59 145.870
XW-2A 21 Aug 20:58:03 21:00:03 15° 268° (W) 21:02:04 145.665 - 145.685
AO-73 21 Aug 20:59:00 21:03:07 72° 257° (WSW) 21:07:16 145.935
STRAND 1 21 Aug 21:09:48 21:14:52 65° 288° (WNW) 21:19:54 437.568
RS-15 21 Aug 21:10:07 21:22:03 69° 243° (WSW) 21:33:19 29.354- 29.394
EO-88 21 Aug 21:13:07 21:15:26 16° 65° (ENE) 21:17:46 145.990 - 145.960
AAUSAT CUBESAT 2 21 Aug 21:20:27 21:23:45 23° 267° (W) 21:27:06 437.432
O/OREOS (USA 219) 21 Aug 21:20:55 21:22:10 11° 263° (W) 21:23:26 437.305
HO-68 21 Aug 21:20:58 21:25:29 18° 272° (W) 21:30:03 435.675
UWE-3 21 Aug 21:39:01 21:41:19 14° 270° (W) 21:43:37 435.000/436.395/437.385
Oscar 11 21 Aug 21:43:25 21:47:19 33° 264° (W) 21:51:15 .
Max Valier Satellite 21 Aug 21:53:04 21:56:40 60° 74° (ENE) 22:00:17 145.860
PCSat 21 Aug 22:06:43 22:10:39 21° 106° (ESE) 22:14:35 145.827
TIGRISAT 21 Aug 22:07:51 22:10:26 15° 91° (E) 22:13:01 435.000
DELFI C3 21 Aug 22:17:07 22:21:01 53° 260° (W) 22:24:58 145.870
LO-87 21 Aug 22:39:31 22:42:21 22° 68° (ENE) 22:45:12 145.935 - 145.965
FO-29 21 Aug 22:45:21 22:51:01 82° 104° (ESE) 22:56:14 435.910
EO-88 21 Aug 22:45:25 22:48:49 37° 262° (W) 22:52:15 145.990 - 145.960
ESTCUBE 1 21 Aug 22:52:12 22:55:55 26° 66° (ENE) 22:59:40 437.505/2401.250
PRISM 21 Aug 22:57:15 23:01:03 35° 98° (E) 23:04:49 437.425
UNISAT 6 21 Aug 23:08:18 23:12:36 71° 102° (ESE) 23:16:59 437.425
SO-50 21 Aug 23:22:45 23:27:05 48° 120° (ESE) 23:31:26 436.795
RS-15 21 Aug 23:25:34 23:31:58 17° 266° (W) 23:38:15 29.354- 29.394
TIGRISAT 21 Aug 23:43:14 23:47:27 54° 287° (WNW) 23:51:42 435.000
PCSat 21 Aug 23:48:10 23:53:32 64° 305° (NW) 23:58:58 145.827
M-CUBED/EXP-1 PRIME 21 Aug 23:48:29 23:50:30 13° 93° (E) 23:52:28 437.505
QB50P2 21 Aug 23:50:20 23:51:54 12° 89° (E) 23:53:28 145.880/145.840
EO-79 21 Aug 23:51:13 23:52:12 11° 88° (E) 23:53:11 145.935-145.965
LO-87 22 Aug 00:12:39 00:15:41 25° 264° (W) 00:18:43 145.935 - 145.965
DUCHIFAT 1 22 Aug 00:18:29 00:21:17 17° 92° (E) 00:24:05 145.980
ESTCUBE 1 22 Aug 00:28:25 00:32:34 35° 263° (W) 00:36:45 437.505/2401.250
VELOX 1 22 Aug 00:30:24 00:34:45 55° 72° (ENE) 00:39:08 145.980
DX 1 22 Aug 00:30:30 00:33:30 18° 62° (ENE) 00:36:30 434.975-435.025
AIST 2D 22 Aug 00:30:42 00:34:16 77° 102° (ESE) 00:37:50 435.315
SPROUT 22 Aug 00:30:50 00:35:04 67° 73° (ENE) 00:39:17 437.525
FO-29 22 Aug 00:32:01 00:35:17 16° 305° (NW) 00:38:25 435.910
PRISM 22 Aug 00:32:55 00:36:08 22° 295° (WNW) 00:39:19 437.425
UNISAT 6 22 Aug 00:46:44 00:48:48 13° 299° (WNW) 00:50:51 437.425
50 SAT 22 Aug 00:50:41 00:53:41 29° 70° (ENE) 00:56:43 437.505
NANOSAT C BR1 22 Aug 01:03:04 01:07:13 58° 101° (E) 01:11:21 145.865
SO-50 22 Aug 01:03:56 01:07:45 26° 319° (NW) 01:11:36 436.795
POLYITAN 1 22 Aug 01:08:41 01:12:55 76° 104° (ESE) 01:17:07 437.675
M-CUBED/EXP-1 PRIME 22 Aug 01:21:04 01:25:26 65° 292° (WNW) 01:29:28 437.505
QB50P2 22 Aug 01:23:57 01:28:08 67° 286° (WNW) 01:32:19 145.880/145.840
EO-79 22 Aug 01:24:16 01:28:27 74° 286° (WNW) 01:32:39 145.935-145.965
PCSat 22 Aug 01:34:49 01:38:02 16° 327° (NNW) 01:41:16 145.827
UKube-1 22 Aug 01:41:10 01:45:26 60° 73° (ENE) 01:49:43 .
NO-84 22 Aug 01:44:50 01:47:40 49° 139° (SE) 01:50:26 435.350 FM
BUGSAT 1 22 Aug 01:49:07 01:53:00 45° 99° (E) 01:56:51 437.445
DUCHIFAT 1 22 Aug 01:53:11 01:57:11 45° 289° (WNW) 02:01:09 145.980
DX 1 22 Aug 02:05:03 02:09:19 50° 260° (W) 02:13:36 434.975-435.025
Gurwin Techsat 1B 22 Aug 02:08:38 02:12:49 23° 93° (E) 02:16:59 435.225
VELOX 1 22 Aug 02:08:46 02:11:32 16° 269° (W) 02:14:19 145.980
SPROUT 22 Aug 02:09:42 02:11:24 12° 271° (W) 02:13:07 437.525
MOZHAYETS 4 22 Aug 02:11:13 02:13:26 14° 59° (ENE) 02:15:42
YUBILEINY 22 Aug 02:22:41 02:30:28 34° 67° (ENE) 02:38:10 435.215
50 SAT 22 Aug 02:24:05 02:26:24 17° 266° (W) 02:28:45 437.505
Oscar 19 22 Aug 02:25:47 02:30:50 48° 99° (E) 02:35:51 437.125/150
BEESAT 22 Aug 02:34:47 02:38:49 28° 65° (ENE) 02:42:51 436.000
NANOSAT C BR1 22 Aug 02:40:06 02:42:28 15° 298° (WNW) 02:44:51 145.865
POLYITAN 1 22 Aug 02:46:26 02:48:07 12° 300° (WNW) 02:49:47 437.675
AO-7 22 Aug 02:57:36 03:01:02 13° 85° (E) 03:04:27 .
ITUPSAT 1 22 Aug 03:09:07 03:13:46 57° 71° (ENE) 03:18:27 437.325
UKube-1 22 Aug 03:19:35 03:21:51 14° 270° (W) 03:24:07 .
NO-84 22 Aug 03:22:52 03:25:11 22° 337° (NNW) 03:27:31 435.350 FM
BUGSAT 1 22 Aug 03:25:23 03:28:02 17° 296° (WNW) 03:30:40 437.445
MOZHAYETS 4 22 Aug 03:45:26 03:49:58 77° 256° (WSW) 03:54:34
Gurwin Techsat 1B 22 Aug 03:47:54 03:53:03 51° 290° (WNW) 03:58:09 435.225
ITAMSAT 1 22 Aug 03:48:31 03:52:23 21° 92° (E) 03:56:13 435.822/435.867
KKS-1 22 Aug 03:50:49 03:53:06 14° 59° (ENE) 03:55:23 437.445
Oscar 19 22 Aug 04:05:41 04:09:52 25° 297° (WNW) 04:14:03 437.125/150
CUBESAT XI-V 22 Aug 04:08:32 04:12:52 40° 70° (ENE) 04:17:16 437.345
BEESAT 22 Aug 04:12:06 04:16:27 35° 263° (W) 04:20:50 436.000
YUBILEINY 22 Aug 04:19:15 04:27:44 58° 269° (W) 04:36:09 435.215
BEESAT 3 22 Aug 04:22:52 04:24:39 13° 109° (ESE) 04:26:27 437.485
STARS 22 Aug 04:26:09 04:28:18 13° 59° (ENE) 04:30:25 437.465
AO-7 22 Aug 04:47:03 04:55:22 67° 105° (ESE) 05:03:36 .
ITUPSAT 1 22 Aug 04:48:50 04:51:57 17° 269° (W) 04:55:05 437.325
AO-85 22 Aug 04:54:16 04:56:41 16° 112° (ESE) 04:59:05 145.980
NO-84 22 Aug 05:02:10 05:03:25 12° 359° (N) 05:04:41 435.350 FM
KKS-1 22 Aug 05:24:37 05:29:04 73° 257° (WSW) 05:33:34 437.445
ITAMSAT 1 22 Aug 05:27:07 05:32:10 54° 290° (WNW) 05:37:11 435.822/435.867
CUBESAT XI-V 22 Aug 05:46:38 05:50:23 23° 267° (W) 05:54:09 437.345
BEESAT 3 22 Aug 05:57:40 06:01:40 70° 307° (NW) 06:05:43 437.485
STARS 22 Aug 05:59:39 06:04:02 74° 256° (WSW) 06:08:28 437.465
CUTE-I 22 Aug 06:07:42 06:09:42 12° 87° (E) 06:11:42 437.470
DOVE 4 22 Aug 06:09:10 06:13:23 36° 96° (E) 06:17:22 437.250
SO-50 22 Aug 06:12:21 06:15:11 16° 33° (NNE) 06:18:02 436.795
XW-2B 22 Aug 06:13:17 06:14:51 12° 90° (E) 06:16:25 145.730 - 145.750
BEESAT 2 22 Aug 06:14:21 06:18:17 60° 121° (ESE) 06:22:18 435.950
YUBILEINY 22 Aug 06:20:56 06:22:28 11° 291° (WNW) 06:23:59 435.215
XW-2C 22 Aug 06:31:19 06:34:12 20° 93° (E) 06:37:04 145.795 - 145.815
AO-85 22 Aug 06:32:50 06:36:40 51° 310° (NW) 06:40:31 145.980
NO-84 22 Aug 06:39:24 06:41:40 20° 21° (NNE) 06:44:03 435.350 FM
AO-7 22 Aug 06:40:28 06:47:37 33° 306° (NW) 06:54:43 .
XW-2F 22 Aug 06:42:09 06:45:21 25° 95° (E) 06:48:31 145.980 - 146.000
STRAND 1 22 Aug 06:49:23 06:53:48 31° 65° (ENE) 06:58:15 437.568
PCSat 22 Aug 06:50:59 06:55:46 30° 45° (NE) 07:00:30 145.827
HO-68 22 Aug 06:57:11 07:01:02 15° 87° (E) 07:04:51 435.675
KAITUO 1B 22 Aug 07:04:50 07:08:22 35° 97° (E) 07:11:53 145.475/437.950
FO-29 22 Aug 07:19:44 07:21:02 11° 50° (NE) 07:22:19 435.910
LilacSat-2 22 Aug 07:31:54 07:35:48 75° 283° (WNW) 07:39:39 437.200
CUTE 1.7 + AOD 2 22 Aug 07:33:28 07:36:39 20° 92° (E) 07:39:50 437.475
XW-2D 22 Aug 07:34:26 07:38:16 72° 285° (WNW) 07:42:06 145.860 - 145.880
NUDT-PHONESAT 22 Aug 07:35:23 07:39:09 83° 103° (ESE) 07:42:55 437.300
BEESAT 3 22 Aug 07:38:04 07:39:59 13° 327° (NNW) 07:41:54 437.485
CUTE-I 22 Aug 07:45:08 07:50:30 88° 101° (E) 07:55:48 437.470
XW-2B 22 Aug 07:45:35 07:49:22 55° 286° (WNW) 07:53:08 145.730 - 145.750
DOVE 4 22 Aug 07:47:14 07:50:52 24° 296° (WNW) 07:54:21 437.250
SO-50 22 Aug 07:51:49 07:56:24 77° 53° (NE) 08:01:00 436.795
BEESAT 2 22 Aug 07:53:24 07:56:24 20° 321° (NW) 07:59:25 435.950
CUBEBUG 2 22 Aug 07:58:21 08:01:24 19° 93° (E) 08:04:30 437.445
XW-2C 22 Aug 08:05:00 08:08:28 33° 290° (WNW) 08:11:55 145.795 - 145.815
XW-2F 22 Aug 08:16:11 08:19:25 26° 292° (WNW) 08:22:39 145.980 - 146.000
XW-2A 22 Aug 08:16:19 08:19:13 25° 96° (E) 08:22:06 145.665 - 145.685
NO-84 22 Aug 08:16:19 08:19:19 72° 219° (SW) 08:22:31 435.350 FM
AO-85 22 Aug 08:17:45 08:18:00 10° 331° (NNW) 08:18:15 145.980
SEEDS 22 Aug 08:18:05 08:22:04 37° 97° (E) 08:26:00 437.485
ZACube-1 22 Aug 08:25:49 08:27:45 13° 89° (E) 08:29:42 437.345
STRAND 1 22 Aug 08:28:10 08:32:52 37° 263° (W) 08:37:36 437.568
PCSat 22 Aug 08:34:09 08:39:24 51° 245° (WSW) 08:44:37 145.827
KAITUO 1B 22 Aug 08:39:25 08:42:07 19° 294° (WNW) 08:44:49 145.475/437.950
HO-68 22 Aug 08:42:38 08:49:50 80° 106° (ESE) 08:57:00 435.675
AO-73 22 Aug 08:45:15 08:48:17 18° 92° (E) 08:51:20 145.935
FO-29 22 Aug 08:57:39 09:04:46 50° 68° (ENE) 09:11:12 435.910
AAUSAT CUBESAT 2 22 Aug 08:59:18 09:03:22 47° 99° (E) 09:07:23 437.432
CUTE 1.7 + AOD 2 22 Aug 09:08:36 09:12:39 40° 289° (WNW) 09:16:40 437.475
TIGRISAT 22 Aug 09:08:39 09:11:32 18° 63° (ENE) 09:14:25 435.000
UWE-3 22 Aug 09:23:39 09:27:55 89° 295° (WNW) 09:32:16 435.000/436.395/437.385
CUTE-I 22 Aug 09:26:52 09:29:48 15° 303° (WNW) 09:32:43 437.470
Oscar 11 22 Aug 09:28:01 09:32:05 37° 97° (E) 09:36:08 .
RS-15 22 Aug 09:28:53 09:35:36 17° 95° (E) 09:42:20 29.354- 29.394
SO-50 22 Aug 09:33:54 09:36:16 14° 251° (WSW) 09:38:39 436.795
CUBEBUG 2 22 Aug 09:34:15 09:38:12 40° 289° (WNW) 09:42:13 437.445
ISS 22 Aug 09:44:05 09:46:32 20° 136° (SE) 09:49:01 437.550
Tancredo 1 22 Aug 09:46:12 09:49:06 68° 147° (SSE) 09:52:00 437.200
PRISM 22 Aug 09:48:07 09:51:52 33° 68° (ENE) 09:55:37 437.425
XW-2A 22 Aug 09:49:15 09:51:49 20° 292° (WNW) 09:54:21 145.665 - 145.685
nSIGHT-1 22 Aug 09:50:19 09:52:59 23° 138° (SE) 09:55:39 .
DELFI C3 22 Aug 09:52:52 09:55:27 16° 91° (E) 09:57:59 145.870
O/OREOS (USA 219) 22 Aug 09:53:04 09:57:29 64° 111° (ESE) 10:01:56 437.305
SEEDS 22 Aug 09:54:13 09:57:32 22° 294° (WNW) 10:00:50 437.485
ZACube-1 22 Aug 10:00:11 10:04:26 66° 286° (WNW) 10:08:46 437.345
UNISAT 6 22 Aug 10:08:50 10:13:09 79° 75° (ENE) 10:17:26 437.425
EO-88 22 Aug 10:12:46 10:14:59 15° 92° (E) 10:17:13 145.990 - 145.960
AO-73 22 Aug 10:20:37 10:24:43 45° 288° (WNW) 10:28:53 145.935
HO-68 22 Aug 10:31:25 10:36:49 24° 305° (NW) 10:42:13 435.675
M-CUBED/EXP-1 PRIME 22 Aug 10:34:11 10:37:59 26° 60° (ENE) 10:41:52 437.505
AAUSAT CUBESAT 2 22 Aug 10:35:39 10:38:27 18° 296° (WNW) 10:41:15 437.432
FO-29 22 Aug 10:43:05 10:49:53 36° 264° (W) 10:56:08 435.910
TIGRISAT 22 Aug 10:43:43 10:47:54 48° 261° (W) 10:52:02 435.000
QB50P2 22 Aug 10:45:05 10:46:58 13° 60° (ENE) 10:48:50 145.880/145.840
EO-79 22 Aug 10:45:38 10:47:10 12° 60° (ENE) 10:48:41 145.935-145.965
Max Valier Satellite 22 Aug 10:54:27 10:58:08 63° 101° (E) 11:01:49 145.860
UWE-3 22 Aug 11:03:11 11:03:43 10° 301° (WNW) 11:04:15 435.000/436.395/437.385
Oscar 11 22 Aug 11:04:35 11:08:01 23° 294° (WNW) 11:11:27 .
AIST 2D 22 Aug 11:06:47 11:09:58 35° 72° (ENE) 11:13:12 435.315
DUCHIFAT 1 22 Aug 11:12:23 11:15:09 18° 63° (ENE) 11:17:56 145.980
ISS 22 Aug 11:19:28 11:22:45 67° 333° (NNW) 11:26:01 437.550
Tancredo 1 22 Aug 11:21:53 11:24:28 28° 346° (NNW) 11:27:03 437.200
PRISM 22 Aug 11:23:51 11:27:11 23° 266° (W) 11:30:33 437.425
nSIGHT-1 22 Aug 11:25:55 11:29:09 58° 335° (NNW) 11:32:24 .
DELFI C3 22 Aug 11:26:38 11:30:25 42° 289° (WNW) 11:34:09 145.870
RS-15 22 Aug 11:33:33 11:45:37 68° 117° (ESE) 11:57:46 29.354- 29.394
O/OREOS (USA 219) 22 Aug 11:34:24 11:37:21 17° 310° (NW) 11:40:19 437.305
LO-87 22 Aug 11:37:24 11:40:03 20° 94° (E) 11:42:42 145.935 - 145.965
EO-88 22 Aug 11:45:24 11:48:50 39° 289° (WNW) 11:52:16 145.990 - 145.960
UNISAT 6 22 Aug 11:49:50 11:50:24 10° 272° (W) 11:50:57 437.425
NANOSAT C BR1 22 Aug 11:56:41 12:00:46 55° 72° (ENE) 12:04:52 145.865
POLYITAN 1 22 Aug 12:02:46 12:06:55 72° 76° (ENE) 12:11:07 437.675
M-CUBED/EXP-1 PRIME 22 Aug 12:07:52 12:12:09 41° 257° (WSW) 12:16:35 437.505
Oscar 19 22 Aug 12:08:44 12:11:10 13° 56° (NE) 12:13:35 437.125/150
QB50P2 22 Aug 12:18:00 12:22:12 71° 258° (WSW) 12:26:24 145.880/145.840
EO-79 22 Aug 12:18:07 12:22:18 78° 256° (WSW) 12:26:32 145.935-145.965
ESTCUBE 1 22 Aug 12:18:18 12:22:37 40° 98° (E) 12:26:53 437.505/2401.250
Max Valier Satellite 22 Aug 12:30:19 12:31:28 11° 298° (WNW) 12:32:36 145.860
BEESAT 3 22 Aug 12:35:43 12:38:38 19° 39° (NE) 12:41:31 437.485
BUGSAT 1 22 Aug 12:40:27 12:44:17 41° 71° (ENE) 12:48:06 437.445
AIST 2D 22 Aug 12:41:14 12:43:19 15° 268° (W) 12:45:25 435.315
DUCHIFAT 1 22 Aug 12:46:27 12:50:29 47° 260° (W) 12:54:32 145.980
BEESAT 2 22 Aug 12:53:41 12:55:36 13° 33° (NNE) 12:57:30 435.950
ISS 22 Aug 12:56:46 12:59:38 26° 353° (N) 13:02:29 437.550
Tancredo 1 22 Aug 12:57:49 13:00:13 23° 6° (N) 13:02:38 437.200
nSIGHT-1 22 Aug 13:03:11 13:05:59 26° 355° (N) 13:08:47 .
LO-87 22 Aug 13:10:27 13:13:30 27° 291° (WNW) 13:16:31 145.935 - 145.965
AO-85 22 Aug 13:21:12 13:25:00 31° 45° (NE) 13:29:02 145.980
Gurwin Techsat 1B 22 Aug 13:31:24 13:36:25 45° 69° (ENE) 13:41:28 435.225
NANOSAT C BR1 22 Aug 13:34:33 13:36:49 14° 270° (W) 13:39:05 145.865
POLYITAN 1 22 Aug 13:42:05 13:43:12 11° 271° (W) 13:44:19 437.675
50 SAT 22 Aug 13:42:42 13:45:21 21° 95° (E) 13:47:58 437.505
Oscar 19 22 Aug 13:44:31 13:49:40 85° 75° (ENE) 13:54:54 437.125/150
RS-15 22 Aug 13:47:01 13:58:51 49° 323° (NW) 14:10:41 29.354- 29.394
SPROUT 22 Aug 13:50:00 13:54:16 84° 287° (WNW) 13:58:31 437.525
DX 1 22 Aug 13:51:30 13:54:59 23° 94° (E) 13:58:25 434.975-435.025
VELOX 1 22 Aug 13:54:27 13:58:54 84° 107° (ESE) 14:03:18 145.980
ESTCUBE 1 22 Aug 13:55:36 13:59:11 23° 295° (WNW) 14:02:46 437.505/2401.250
AO-7 22 Aug 13:57:41 14:04:23 28° 51° (NE) 14:11:05 .
BEESAT 3 22 Aug 14:12:37 14:16:35 62° 238° (WSW) 14:20:28 437.485
BUGSAT 1 22 Aug 14:17:01 14:19:49 18° 267° (W) 14:22:37 437.445
BEESAT 2 22 Aug 14:30:02 14:34:07 69° 53° (NE) 14:38:07 435.950
Tancredo 1 22 Aug 14:32:55 14:35:48 58° 26° (NNE) 14:38:39 437.200
ISS 22 Aug 14:33:44 14:36:43 31° 13° (NNE) 14:39:42 437.550
nSIGHT-1 22 Aug 14:39:57 14:42:58 33° 15° (NNE) 14:45:58 .
AO-85 22 Aug 15:01:28 15:05:25 36° 242° (WSW) 15:09:40 145.980
UKube-1 22 Aug 15:01:49 15:06:10 83° 104° (ESE) 15:10:28 .
ITAMSAT 1 22 Aug 15:08:05 15:12:54 40° 67° (ENE) 15:17:44 435.822/435.867
ITUPSAT 1 22 Aug 15:09:26 15:11:21 12° 88° (E) 15:13:14 437.325
Gurwin Techsat 1B 22 Aug 15:12:08 15:16:33 26° 266° (W) 15:21:00 435.225
50 SAT 22 Aug 15:15:14 15:17:58 23° 292° (WNW) 15:20:40 437.505
YUBILEINY 22 Aug 15:26:39 15:34:21 36° 84° (E) 15:42:02 435.215
DX 1 22 Aug 15:27:15 15:31:15 36° 291° (WNW) 15:35:14 434.975-435.025
Oscar 19 22 Aug 15:27:23 15:29:40 13° 272° (W) 15:31:57 437.125/150
VELOX 1 22 Aug 15:32:58 15:34:41 12° 302° (WNW) 15:36:23 145.980
MOZHAYETS 4 22 Aug 15:38:52 15:42:26 21° 93° (E) 15:45:58
AO-7 22 Aug 15:47:56 15:56:20 81° 252° (WSW) 16:04:46 .
RS-15 22 Aug 16:04:50 16:15:16 30° 355° (N) 16:25:28 29.354- 29.394
Tancredo 1 22 Aug 16:08:36 16:10:44 19° 223° (SW) 16:12:51 437.200
BEESAT 2 22 Aug 16:09:27 16:11:19 13° 251° (WSW) 16:13:08 435.950
BEESAT 22 Aug 16:09:29 16:14:06 48° 99° (E) 16:18:42 436.000
ISS 22 Aug 16:10:10 16:13:26 72° 211° (SSW) 16:16:40 437.550
nSIGHT-1 22 Aug 16:16:17 16:19:30 60° 214° (SW) 16:22:41 .
UKube-1 22 Aug 16:39:58 16:41:32 12° 302° (WNW) 16:43:05 .
ITUPSAT 1 22 Aug 16:44:57 16:49:45 80° 287° (WNW) 16:54:31 437.325
ITAMSAT 1 22 Aug 16:48:00 16:52:28 28° 265° (W) 16:56:56 435.822/435.867
KKS-1 22 Aug 17:14:21 17:17:23 18° 92° (E) 17:20:24 437.445
DOVE 4 22 Aug 17:15:14 17:20:20 51° 72° (ENE) 17:25:16 437.250
MOZHAYETS 4 22 Aug 17:15:24 17:19:46 43° 290° (WNW) 17:24:08
XW-2C 22 Aug 17:15:28 17:17:26 14° 63° (ENE) 17:19:25 145.795 - 145.815
YUBILEINY 22 Aug 17:22:14 17:30:48 55° 285° (WNW) 17:39:23 435.215
XW-2F 22 Aug 17:25:34 17:27:59 17° 65° (ENE) 17:30:27 145.980 - 146.000
HO-68 22 Aug 17:29:11 17:33:25 17° 49° (NE) 17:37:37 435.675
CUTE-I 22 Aug 17:30:19 17:34:42 26° 63° (ENE) 17:39:05 437.470
CUBESAT XI-V 22 Aug 17:39:42 17:44:26 75° 101° (ESE) 17:49:09 437.345
AO-7 22 Aug 17:45:11 17:50:20 17° 272° (W) 17:55:31 .
KAITUO 1B 22 Aug 17:46:58 17:49:55 23° 67° (ENE) 17:52:54 145.475/437.950
STARS 22 Aug 17:47:53 17:50:43 17° 92° (E) 17:53:31 437.465
BEESAT 22 Aug 17:47:56 17:51:34 22° 297° (WNW) 17:55:11 436.000
ISS 22 Aug 17:48:41 17:49:22 10° 229° (SW) 17:50:02 437.550
